Location: Alston School (historical)
(35.5076°N, 89.8251°W)
Time: 05:16:27
(UTC+00:00)

Cosmos 1570 Rocket - Pass Details

Date: 09 December 2025
Orbit: 759 x 784 km, 74.1° (Epoch: 19 January)

Event Time Altitude Azimuth Distance (km) Brightness Sun altitude
Rises 23:04:15 0° 343° (NNW) 3,276 7.2 -4.1°
Reaches altitude 10° 23:06:39 10° 345° (NNW) 2,342 6.4 -4.5°
Maximum altitude 23:12:00 82° 73° (ENE) 791 4.0 -5.5°
Drops below altitude 10° 23:17:16 10° 161° (SSE) 2,316 6.6 -6.5°
Sets 23:19:38 0° 162° (SSE) 3,235 7.3 -6.9°
